Location: Byhalia Creek
(34.8270°N, 89.8040°W)
Time: 17:47:34
(UTC+00:00)

Cosmos 614 Rocket - Pass Details

Date: 22 April 2026
Orbit: 728 x 757 km, 74.1° (Epoch: 9 May)

Event Time Altitude Azimuth Distance (km) Brightness Sun altitude
Rises 02:06:51 0° 343° (NNW) 3,198 8.0 -17.9°
Reaches altitude 10° 02:09:14 10° 343° (NNW) 2,265 7.1 -18.4°
Maximum altitude 02:14:22 88° 70° (ENE) 746 3.8 -19.3°
Enters shadow 02:16:51 31° 163° (SSE) 1,276 4.7 -19.7°
